PRIVATE WETTERSTATION BILLIGHEIM-ALLFELD                       ZURCK
Wetterdaten: Montag, 27.10.2014
Datum Zeit Temp. A. Temp. A. min Temp. A. max Feuchte A. Luftdruck Regen Wind Richtung Richtung Sonnenschein ET Solar Taupunkt Windchill Windben Empfang
27.10.2014 00:00 7,6 C 7,6 C 7,6 C 91 % 1025,5 hPa 0,0 l/m 0,0 km/h (0 Bft) N 0 0 min 0,000 mm 0 W/m 6,2 C 7,6 C 0,0 km/h (0 Bft) 100 %
27.10.2014 00:10 7,4 C 7,4 C 7,6 C 91 % 1025,5 hPa 0,0 l/m 0,0 km/h (0 Bft) N-NW 337 0 min 0,000 mm 0 W/m 6,0 C 7,4 C 3,2 km/h (1 Bft) 99 %
27.10.2014 00:20 7,2 C 7,2 C 7,4 C 91 % 1025,6 hPa 0,0 l/m 0,0 km/h (0 Bft) N-NW 337 0 min 0,000 mm 0 W/m 5,8 C 7,2 C 1,6 km/h (1 Bft) 100 %
27.10.2014 00:30 7,1 C 7,1 C 7,2 C 91 % 1025,6 hPa 0,0 l/m 0,0 km/h (0 Bft) N 0 0 min 0,000 mm 0 W/m 5,7 C 7,1 C 0,0 km/h (0 Bft) 99 %
27.10.2014 00:40 6,9 C 6,9 C 7,1 C 91 % 1025,5 hPa 0,0 l/m 0,0 km/h (0 Bft) N 0 0 min 0,000 mm 0 W/m 5,5 C 6,9 C 0,0 km/h (0 Bft) 100 %
27.10.2014 00:50 6,8 C 6,8 C 6,9 C 91 % 1025,6 hPa 0,0 l/m 0,0 km/h (0 Bft) N-NW 337 0 min 0,000 mm 0 W/m 5,4 C 6,8 C 1,6 km/h (1 Bft) 100 %
27.10.2014 01:00 6,8 C 6,8 C 6,8 C 91 % 1025,6 hPa 0,0 l/m 0,0 km/h (0 Bft) N 0 0 min 0,000 mm 0 W/m 5,4 C 6,8 C 0,0 km/h (0 Bft) 100 %
27.10.2014 01:10 6,7 C 6,7 C 6,8 C 91 % 1025,5 hPa 0,0 l/m 0,0 km/h (0 Bft) N 0 0 min 0,000 mm 0 W/m 5,3 C 6,7 C 0,0 km/h (0 Bft) 100 %
27.10.2014 01:20 6,7 C 6,7 C 6,7 C 91 % 1025,5 hPa 0,0 l/m 0,0 km/h (0 Bft) N 0 0 min 0,000 mm 0 W/m 5,3 C 6,7 C 0,0 km/h (0 Bft) 99 %
27.10.2014 01:30 6,6 C 6,6 C 6,7 C 91 % 1025,5 hPa 0,0 l/m 0,0 km/h (0 Bft) N 0 0 min 0,000 mm 0 W/m 5,2 C 6,6 C 0,0 km/h (0 Bft) 100 %
27.10.2014 01:40 6,4 C 6,4 C 6,6 C 91 % 1025,5 hPa 0,0 l/m 0,0 km/h (0 Bft) N 0 0 min 0,000 mm 0 W/m 5,0 C 6,4 C 0,0 km/h (0 Bft) 100 %
27.10.2014 01:50 6,4 C 6,4 C 6,4 C 91 % 1025,5 hPa 0,0 l/m 0,0 km/h (0 Bft) N 0 0 min 0,000 mm 0 W/m 5,0 C 6,4 C 0,0 km/h (0 Bft) 100 %
27.10.2014 02:00 6,3 C 6,3 C 6,4 C 91 % 1025,6 hPa 0,0 l/m 0,0 km/h (0 Bft) N 0 0 min 0,000 mm 0 W/m 4,9 C 6,3 C 0,0 km/h (0 Bft) 100 %
27.10.2014 02:10 6,3 C 6,3 C 6,4 C 91 % 1025,6 hPa 0,0 l/m 0,0 km/h (0 Bft) N 0 0 min 0,000 mm 0 W/m 4,9 C 6,3 C 0,0 km/h (0 Bft) 100 %
27.10.2014 02:20 6,3 C 6,2 C 6,3 C 91 % 1025,6 hPa 0,0 l/m 0,0 km/h (0 Bft) N 0 0 min 0,000 mm 0 W/m 4,9 C 6,3 C 0,0 km/h (0 Bft) 100 %
27.10.2014 02:30 6,1 C 6,1 C 6,3 C 91 % 1025,7 hPa 0,0 l/m 0,0 km/h (0 Bft) N-NW 337 0 min 0,000 mm 0 W/m 4,7 C 6,1 C 1,6 km/h (1 Bft) 100 %
27.10.2014 02:40 6,1 C 6,1 C 6,1 C 91 % 1025,6 hPa 0,0 l/m 0,0 km/h (0 Bft) N-NW 337 0 min 0,000 mm 0 W/m 4,7 C 6,1 C 1,6 km/h (1 Bft) 100 %
27.10.2014 02:50 6,1 C 6,1 C 6,1 C 91 % 1025,5 hPa 0,0 l/m 0,0 km/h (0 Bft) N 0 0 min 0,000 mm 0 W/m 4,7 C 6,1 C 0,0 km/h (0 Bft) 100 %
27.10.2014 03:00 6,2 C 6,1 C 6,2 C 91 % 1025,7 hPa 0,0 l/m 0,0 km/h (0 Bft) N-NW 337 0 min 0,000 mm 0 W/m 4,8 C 6,2 C 3,2 km/h (1 Bft) 91 %
27.10.2014 03:10 6,2 C 6,2 C 6,2 C 91 % 1025,6 hPa 0,0 l/m 0,0 km/h (0 Bft) N-NW 337 0 min 0,000 mm 0 W/m 4,8 C 6,2 C 3,2 km/h (1 Bft) 100 %
27.10.2014 03:20 6,1 C 6,1 C 6,2 C 91 % 1025,6 hPa 0,0 l/m 0,0 km/h (0 Bft) N-NW 337 0 min 0,000 mm 0 W/m 4,7 C 6,1 C 1,6 km/h (1 Bft) 100 %
27.10.2014 03:30 5,9 C 5,9 C 6,1 C 91 % 1025,6 hPa 0,0 l/m 0,0 km/h (0 Bft) NW 315 0 min 0,000 mm 0 W/m 4,5 C 5,9 C 3,2 km/h (1 Bft) 100 %
27.10.2014 03:40 5,9 C 5,9 C 5,9 C 91 % 1025,6 hPa 0,0 l/m 0,0 km/h (0 Bft) NW 315 0 min 0,000 mm 0 W/m 4,5 C 5,9 C 3,2 km/h (1 Bft) 99 %
27.10.2014 03:50 5,8 C 5,8 C 5,9 C 91 % 1025,7 hPa 0,0 l/m 0,0 km/h (0 Bft) N 0 0 min 0,000 mm 0 W/m 4,4 C 5,8 C 0,0 km/h (0 Bft) 100 %
27.10.2014 04:00 5,7 C 5,7 C 5,8 C 91 % 1025,8 hPa 0,0 l/m 0,0 km/h (0 Bft) NW 315 0 min 0,000 mm 0 W/m 4,3 C 5,7 C 1,6 km/h (1 Bft) 100 %
27.10.2014 04:10 5,7 C 5,6 C 5,7 C 91 % 1025,8 hPa 0,0 l/m 0,0 km/h (0 Bft) NW 315 0 min 0,000 mm 0 W/m 4,3 C 5,7 C 3,2 km/h (1 Bft) 100 %
27.10.2014 04:20 5,7 C 5,6 C 5,7 C 91 % 1025,8 hPa 0,0 l/m 0,0 km/h (0 Bft) O 90 0 min 0,000 mm 0 W/m 4,3 C 5,7 C 3,2 km/h (1 Bft) 100 %
27.10.2014 04:30 5,8 C 5,7 C 5,8 C 91 % 1025,8 hPa 0,0 l/m 0,0 km/h (0 Bft) O-NO 67 0 min 0,000 mm 0 W/m 4,4 C 5,8 C 4,8 km/h (1 Bft) 100 %
27.10.2014 04:40 5,8 C 5,8 C 5,8 C 91 % 1025,7 hPa 0,0 l/m 0,0 km/h (0 Bft) O-NO 67 0 min 0,000 mm 0 W/m 4,4 C 5,8 C 1,6 km/h (1 Bft) 100 %
27.10.2014 04:50 5,9 C 5,8 C 5,9 C 91 % 1025,8 hPa 0,0 l/m 0,0 km/h (0 Bft) O-NO 67 0 min 0,000 mm 0 W/m 4,5 C 5,9 C 1,6 km/h (1 Bft) 100 %
27.10.2014 05:00 5,9 C 5,9 C 5,9 C 91 % 1025,9 hPa 0,0 l/m 0,0 km/h (0 Bft) W-NW 292 0 min 0,000 mm 0 W/m 4,5 C 5,9 C 4,8 km/h (1 Bft) 100 %
27.10.2014 05:10 5,9 C 5,9 C 5,9 C 91 % 1025,9 hPa 0,0 l/m 0,0 km/h (0 Bft) N-NW 337 0 min 0,000 mm 0 W/m 4,5 C 5,9 C 3,2 km/h (1 Bft) 91 %
27.10.2014 05:20 6,0 C 5,9 C 6,0 C 91 % 1025,9 hPa 0,0 l/m 0,0 km/h (0 Bft) N 360 0 min 0,000 mm 0 W/m 4,6 C 6,0 C 1,6 km/h (1 Bft) 100 %
27.10.2014 05:30 6,1 C 6,0 C 6,1 C 91 % 1025,9 hPa 0,0 l/m 0,0 km/h (0 Bft) N 360 0 min 0,000 mm 0 W/m 4,7 C 6,1 C 1,6 km/h (1 Bft) 100 %
27.10.2014 05:40 6,1 C 6,1 C 6,1 C 91 % 1025,9 hPa 0,0 l/m 0,0 km/h (0 Bft) N-NO 22 0 min 0,000 mm 0 W/m 4,7 C 6,1 C 1,6 km/h (1 Bft) 100 %
27.10.2014 05:50 6,1 C 6,1 C 6,2 C 91 % 1025,9 hPa 0,0 l/m 0,0 km/h (0 Bft) S-SO 157 0 min 0,000 mm 0 W/m 4,7 C 6,1 C 6,4 km/h (2 Bft) 100 %
27.10.2014 06:00 6,2 C 6,1 C 6,2 C 91 % 1025,9 hPa 0,0 l/m 0,0 km/h (0 Bft) S 180 0 min 0,000 mm 0 W/m 4,8 C 6,2 C 3,2 km/h (1 Bft) 100 %
27.10.2014 06:10 6,2 C 6,2 C 6,2 C 91 % 1025,9 hPa 0,0 l/m 1,6 km/h (1 Bft) SO 135 0 min 0,000 mm 0 W/m 4,8 C 6,2 C 4,8 km/h (1 Bft) 100 %
27.10.2014 06:20 6,2 C 6,2 C 6,2 C 91 % 1025,8 hPa 0,0 l/m 0,0 km/h (0 Bft) O 90 0 min 0,000 mm 0 W/m 4,8 C 6,2 C 3,2 km/h (1 Bft) 100 %
27.10.2014 06:30 6,3 C 6,2 C 6,3 C 91 % 1025,8 hPa 0,0 l/m 0,0 km/h (0 Bft) O-NO 67 0 min 0,000 mm 0 W/m 4,9 C 6,3 C 3,2 km/h (1 Bft) 100 %
27.10.2014 06:40 6,3 C 6,3 C 6,3 C 91 % 1025,9 hPa 0,0 l/m 0,0 km/h (0 Bft) NO 45 0 min 0,000 mm 0 W/m 4,9 C 6,3 C 1,6 km/h (1 Bft) 100 %
27.10.2014 06:50 6,3 C 6,3 C 6,3 C 91 % 1026,0 hPa 0,0 l/m 0,0 km/h (0 Bft) N-NO 22 0 min 0,000 mm 0 W/m 4,9 C 6,3 C 3,2 km/h (1 Bft) 100 %
27.10.2014 07:00 6,3 C 6,3 C 6,3 C 91 % 1026,0 hPa 0,0 l/m 0,0 km/h (0 Bft) NO 45 0 min 0,000 mm 0 W/m 4,9 C 6,3 C 3,2 km/h (1 Bft) 100 %
27.10.2014 07:10 6,3 C 6,3 C 6,3 C 91 % 1026,1 hPa 0,0 l/m 0,0 km/h (0 Bft) NO 45 0 min 0,000 mm 9 W/m 4,9 C 6,3 C 3,2 km/h (1 Bft) 100 %
27.10.2014 07:20 6,3 C 6,3 C 6,3 C 91 % 1026,1 hPa 0,0 l/m 0,0 km/h (0 Bft) SO 135 0 min 0,000 mm 16 W/m 4,9 C 6,3 C 3,2 km/h (1 Bft) 100 %
27.10.2014 07:30 6,3 C 6,3 C 6,3 C 91 % 1026,3 hPa 0,0 l/m 0,0 km/h (0 Bft) S-SW 202 0 min 0,000 mm 26 W/m 4,9 C 6,3 C 3,2 km/h (1 Bft) 100 %
27.10.2014 07:40 6,3 C 6,3 C 6,3 C 91 % 1026,4 hPa 0,0 l/m 0,0 km/h (0 Bft) O-SO 112 0 min 0,000 mm 40 W/m 4,9 C 6,3 C 1,6 km/h (1 Bft) 100 %
27.10.2014 07:50 6,4 C 6,3 C 6,4 C 91 % 1026,5 hPa 0,0 l/m 0,0 km/h (0 Bft) N 360 0 min 0,000 mm 40 W/m 5,0 C 6,4 C 3,2 km/h (1 Bft) 100 %
27.10.2014 08:00 6,6 C 6,4 C 6,6 C 91 % 1026,5 hPa 0,0 l/m 0,0 km/h (0 Bft) O-NO 67 0 min 0,000 mm 63 W/m 5,2 C 6,6 C 3,2 km/h (1 Bft) 100 %
27.10.2014 08:10 6,7 C 6,6 C 6,7 C 91 % 1026,6 hPa 0,0 l/m 0,0 km/h (0 Bft) O-SO 112 0 min 0,000 mm 79 W/m 5,3 C 6,7 C 4,8 km/h (1 Bft) 100 %
27.10.2014 08:20 6,8 C 6,7 C 6,8 C 91 % 1026,7 hPa 0,0 l/m 0,0 km/h (0 Bft) SO 135 0 min 0,000 mm 76 W/m 5,4 C 6,8 C 3,2 km/h (1 Bft) 100 %
27.10.2014 08:30 7,0 C 6,8 C 7,0 C 91 % 1026,8 hPa 0,0 l/m 0,0 km/h (0 Bft) O-SO 112 0 min 0,000 mm 72 W/m 5,6 C 7,0 C 3,2 km/h (1 Bft) 100 %
27.10.2014 08:40 7,1 C 7,0 C 7,1 C 91 % 1026,9 hPa 0,0 l/m 0,0 km/h (0 Bft) O 90 0 min 0,000 mm 79 W/m 5,7 C 7,1 C 3,2 km/h (1 Bft) 100 %
27.10.2014 08:50 7,2 C 7,1 C 7,2 C 91 % 1027,1 hPa 0,0 l/m 0,0 km/h (0 Bft) SO 135 0 min 0,000 mm 65 W/m 5,8 C 7,2 C 4,8 km/h (1 Bft) 100 %
27.10.2014 09:00 7,3 C 7,2 C 7,3 C 91 % 1027,0 hPa 0,0 l/m 0,0 km/h (0 Bft) W-NW 292 0 min 0,025 mm 63 W/m 5,9 C 7,3 C 1,6 km/h (1 Bft) 100 %
27.10.2014 09:10 7,4 C 7,3 C 7,4 C 91 % 1027,0 hPa 0,0 l/m 0,0 km/h (0 Bft) O-NO 67 0 min 0,000 mm 56 W/m 6,0 C 7,4 C 3,2 km/h (1 Bft) 100 %
27.10.2014 09:20 7,4 C 7,4 C 7,5 C 91 % 1027,1 hPa 0,0 l/m 0,0 km/h (0 Bft) NW 315 0 min 0,000 mm 69 W/m 6,0 C 7,4 C 6,4 km/h (2 Bft) 100 %
27.10.2014 09:30 7,4 C 7,4 C 7,5 C 91 % 1027,2 hPa 0,0 l/m 0,0 km/h (0 Bft) SO 135 0 min 0,000 mm 81 W/m 6,0 C 7,4 C 8,0 km/h (2 Bft) 100 %
27.10.2014 09:40 7,6 C 7,4 C 7,6 C 91 % 1027,2 hPa 0,0 l/m 0,0 km/h (0 Bft) O-SO 112 0 min 0,000 mm 113 W/m 6,2 C 7,6 C 1,6 km/h (1 Bft) 100 %
27.10.2014 09:50 7,8 C 7,6 C 7,8 C 91 % 1027,2 hPa 0,0 l/m 1,6 km/h (1 Bft) O 90 10 min 0,000 mm 155 W/m 6,4 C 7,8 C 11,3 km/h (2 Bft) 94 %
27.10.2014 10:00 7,9 C 7,8 C 7,9 C 92 % 1027,3 hPa 0,0 l/m 0,0 km/h (0 Bft) O-SO 112 0 min 0,025 mm 139 W/m 6,7 C 7,9 C 4,8 km/h (1 Bft) 95 %
27.10.2014 10:10 8,1 C 7,9 C 8,1 C 91 % 1027,3 hPa 0,0 l/m 0,0 km/h (0 Bft) O-SO 112 0 min 0,000 mm 107 W/m 6,7 C 8,1 C 6,4 km/h (2 Bft) 100 %
27.10.2014 10:20 8,1 C 8,1 C 8,1 C 91 % 1027,2 hPa 0,0 l/m 1,6 km/h (1 Bft) O-SO 112 0 min 0,000 mm 113 W/m 6,7 C 8,1 C 8,0 km/h (2 Bft) 100 %
27.10.2014 10:30 8,3 C 8,1 C 8,3 C 91 % 1027,1 hPa 0,0 l/m 1,6 km/h (1 Bft) O-SO 112 10 min 0,000 mm 244 W/m 6,9 C 8,3 C 6,4 km/h (2 Bft) 100 %
27.10.2014 10:40 8,7 C 8,3 C 8,7 C 90 % 1027,1 hPa 0,0 l/m 1,6 km/h (1 Bft) O 90 10 min 0,000 mm 309 W/m 7,2 C 8,7 C 9,7 km/h (2 Bft) 100 %
27.10.2014 10:50 8,8 C 8,7 C 8,8 C 89 % 1027,2 hPa 0,0 l/m 1,6 km/h (1 Bft) O-SO 112 10 min 0,000 mm 213 W/m 7,1 C 8,8 C 14,5 km/h (3 Bft) 100 %
27.10.2014 11:00 9,0 C 8,8 C 9,0 C 89 % 1027,1 hPa 0,0 l/m 1,6 km/h (1 Bft) SO 135 10 min 0,076 mm 207 W/m 7,3 C 9,0 C 14,5 km/h (3 Bft) 100 %
27.10.2014 11:10 9,1 C 9,0 C 9,1 C 88 % 1027,0 hPa 0,0 l/m 1,6 km/h (1 Bft) O 90 10 min 0,000 mm 209 W/m 7,2 C 9,1 C 11,3 km/h (2 Bft) 100 %
27.10.2014 11:20 9,3 C 9,1 C 9,3 C 88 % 1027,0 hPa 0,0 l/m 1,6 km/h (1 Bft) NO 45 10 min 0,000 mm 229 W/m 7,4 C 9,3 C 8,0 km/h (2 Bft) 100 %
27.10.2014 11:30 9,3 C 9,3 C 9,3 C 86 % 1026,9 hPa 0,0 l/m 1,6 km/h (1 Bft) O 90 10 min 0,000 mm 206 W/m 7,1 C 9,3 C 8,0 km/h (2 Bft) 100 %
27.10.2014 11:40 9,3 C 9,2 C 9,3 C 86 % 1026,8 hPa 0,0 l/m 1,6 km/h (1 Bft) O 90 10 min 0,000 mm 207 W/m 7,1 C 9,3 C 14,5 km/h (3 Bft) 100 %
27.10.2014 12:10 9,8 C 9,2 C 9,8 C 87 % 1026,5 hPa 0,0 l/m 2,2 km/h (1 Bft) SO 133 30 min 0,103 mm 225 W/m 7,7 C 9,8 C 11,3 km/h (2 Bft) 100 %
27.10.2014 12:20 10,1 C 9,8 C 10,1 C 86 % 1026,3 hPa 0,0 l/m 1,5 km/h (1 Bft) SO 138 10 min 0,000 mm 199 W/m 7,9 C 10,1 C 9,7 km/h (2 Bft) 100 %
27.10.2014 12:30 10,3 C 10,1 C 10,3 C 87 % 1026,1 hPa 0,0 l/m 0,6 km/h (0 Bft) W-SW 248 10 min 0,000 mm 469 W/m 8,2 C 10,3 C 8,0 km/h (2 Bft) 100 %
27.10.2014 12:40 10,8 C 10,3 C 10,8 C 85 % 1026,0 hPa 0,0 l/m 1,0 km/h (0 Bft) N-NW 347 10 min 0,000 mm 364 W/m 8,4 C 10,8 C 9,7 km/h (2 Bft) 100 %
27.10.2014 12:50 11,0 C 10,8 C 11,0 C 84 % 1025,9 hPa 0,0 l/m 0,4 km/h (0 Bft) N-NW 346 10 min 0,000 mm 383 W/m 8,4 C 11,0 C 4,8 km/h (1 Bft) 100 %
27.10.2014 13:00 11,3 C 11,0 C 11,3 C 83 % 1025,9 hPa 0,0 l/m 0,4 km/h (0 Bft) SO 128 10 min 0,127 mm 223 W/m 8,5 C 11,3 C 6,4 km/h (2 Bft) 100 %
27.10.2014 13:10 11,1 C 11,1 C 11,3 C 81 % 1025,8 hPa 0,0 l/m 1,6 km/h (1 Bft) O-SO 111 10 min 0,000 mm 185 W/m 8,0 C 11,1 C 14,5 km/h (3 Bft) 100 %
27.10.2014 13:20 11,3 C 11,1 C 11,3 C 83 % 1025,6 hPa 0,0 l/m 1,5 km/h (1 Bft) S-SO 161 10 min 0,000 mm 334 W/m 8,5 C 11,3 C 9,7 km/h (2 Bft) 100 %
27.10.2014 13:30 11,6 C 11,3 C 11,6 C 81 % 1025,5 hPa 0,0 l/m 0,4 km/h (0 Bft) S-SO 147 10 min 0,000 mm 179 W/m 8,5 C 11,6 C 6,4 km/h (2 Bft) 100 %
27.10.2014 13:40 11,5 C 11,5 C 11,6 C 81 % 1025,4 hPa 0,0 l/m 0,8 km/h (0 Bft) SO 138 10 min 0,000 mm 274 W/m 8,4 C 11,5 C 4,8 km/h (1 Bft) 100 %
27.10.2014 13:50 11,7 C 11,5 C 11,7 C 82 % 1025,3 hPa 0,0 l/m 1,0 km/h (0 Bft) S-SO 153 10 min 0,000 mm 366 W/m 8,7 C 11,7 C 6,4 km/h (2 Bft) 100 %
27.10.2014 14:00 11,8 C 11,7 C 11,8 C 80 % 1025,2 hPa 0,0 l/m 1,0 km/h (0 Bft) NO 56 10 min 0,000 mm 165 W/m 8,5 C 11,8 C 8,0 km/h (2 Bft) 100 %
27.10.2014 14:10 11,7 C 11,7 C 11,8 C 80 % 1025,1 hPa 0,0 l/m 0,0 km/h (0 Bft) SO 130 10 min 0,127 mm 176 W/m 8,4 C 11,7 C 1,6 km/h (1 Bft) 100 %
27.10.2014 14:20 11,5 C 11,5 C 11,7 C 82 % 1025,1 hPa 0,0 l/m 0,5 km/h (0 Bft) SO 143 10 min 0,000 mm 178 W/m 8,5 C 11,5 C 6,4 km/h (2 Bft) 100 %
27.10.2014 14:30 11,4 C 11,4 C 11,5 C 82 % 1025,1 hPa 0,0 l/m 1,0 km/h (0 Bft) O 98 10 min 0,000 mm 169 W/m 8,4 C 11,4 C 8,0 km/h (2 Bft) 100 %
27.10.2014 14:40 11,4 C 11,4 C 11,4 C 82 % 1025,0 hPa 0,0 l/m 0,1 km/h (0 Bft) N-NO 25 0 min 0,000 mm 135 W/m 8,4 C 11,4 C 3,2 km/h (1 Bft) 100 %
27.10.2014 14:50 11,2 C 11,2 C 11,4 C 82 % 1025,0 hPa 0,0 l/m 1,5 km/h (1 Bft) N-NW 327 0 min 0,000 mm 104 W/m 8,2 C 11,2 C 9,7 km/h (2 Bft) 100 %
27.10.2014 15:00 11,1 C 11,1 C 11,2 C 81 % 1025,0 hPa 0,0 l/m 0,2 km/h (0 Bft) N-NW 338 0 min 0,076 mm 74 W/m 8,0 C 11,1 C 6,4 km/h (2 Bft) 100 %
27.10.2014 15:10 11,0 C 11,0 C 11,1 C 82 % 1025,0 hPa 0,0 l/m 0,1 km/h (0 Bft) S-SO 151 0 min 0,000 mm 60 W/m 8,0 C 11,0 C 4,8 km/h (1 Bft) 100 %
27.10.2014 15:20 10,9 C 10,9 C 11,0 C 83 % 1025,0 hPa 0,0 l/m 0,1 km/h (0 Bft) S 178 0 min 0,000 mm 62 W/m 8,1 C 10,9 C 3,2 km/h (1 Bft) 100 %
27.10.2014 15:30 11,0 C 10,9 C 11,0 C 84 % 1024,9 hPa 0,0 l/m 0,3 km/h (0 Bft) N 360 0 min 0,000 mm 56 W/m 8,4 C 11,0 C 4,8 km/h (1 Bft) 100 %
27.10.2014 15:40 10,9 C 10,9 C 11,0 C 83 % 1024,9 hPa 0,0 l/m 0,0 km/h (0 Bft) NO 39 0 min 0,000 mm 67 W/m 8,1 C 10,9 C 1,6 km/h (1 Bft) 100 %
27.10.2014 15:50 10,8 C 10,8 C 10,9 C 82 % 1024,8 hPa 0,0 l/m 0,1 km/h (0 Bft) N-NO 25 0 min 0,000 mm 47 W/m 7,9 C 10,8 C 3,2 km/h (1 Bft) 100 %
27.10.2014 16:00 10,7 C 10,7 C 10,8 C 83 % 1024,7 hPa 0,0 l/m 0,1 km/h (0 Bft) N-NW 332 0 min 0,025 mm 42 W/m 7,9 C 10,7 C 1,6 km/h (1 Bft) 100 %
27.10.2014 16:10 10,4 C 10,4 C 10,7 C 82 % 1024,8 hPa 0,0 l/m 1,2 km/h (1 Bft) S-SO 154 0 min 0,000 mm 33 W/m 7,5 C 10,4 C 14,5 km/h (3 Bft) 100 %
27.10.2014 16:20 10,1 C 10,1 C 10,4 C 82 % 1024,8 hPa 0,0 l/m 0,4 km/h (0 Bft) NO 36 0 min 0,000 mm 25 W/m 7,2 C 10,1 C 6,4 km/h (2 Bft) 100 %
27.10.2014 16:30 9,9 C 9,9 C 10,1 C 84 % 1024,9 hPa 0,0 l/m 0,1 km/h (0 Bft) O 85 0 min 0,000 mm 21 W/m 7,3 C 9,9 C 3,2 km/h (1 Bft) 100 %
27.10.2014 16:40 9,6 C 9,6 C 9,9 C 84 % 1024,8 hPa 0,0 l/m 0,5 km/h (0 Bft) O 89 0 min 0,000 mm 18 W/m 7,0 C 9,6 C 8,0 km/h (2 Bft) 100 %
27.10.2014 16:50 9,3 C 9,3 C 9,6 C 86 % 1024,9 hPa 0,0 l/m 0,1 km/h (0 Bft) O 90 0 min 0,000 mm 18 W/m 7,1 C 9,3 C 4,8 km/h (1 Bft) 100 %
27.10.2014 17:00 9,0 C 9,0 C 9,3 C 85 % 1024,9 hPa 0,0 l/m 2,7 km/h (1 Bft) O-SO 102 0 min 0,026 mm 11 W/m 6,6 C 9,0 C 12,9 km/h (3 Bft) 100 %
27.10.2014 17:10 8,7 C 8,7 C 9,0 C 85 % 1024,9 hPa 0,0 l/m 2,2 km/h (1 Bft) O 89 0 min 0,000 mm 0 W/m 6,3 C 8,7 C 11,3 km/h (2 Bft) 100 %
27.10.2014 17:20 8,4 C 8,4 C 8,7 C 86 % 1025,0 hPa 0,0 l/m 1,0 km/h (0 Bft) SO 144 0 min 0,000 mm 0 W/m 6,2 C 8,4 C 6,4 km/h (2 Bft) 100 %
27.10.2014 17:30 8,2 C 8,2 C 8,4 C 86 % 1025,1 hPa 0,0 l/m 1,5 km/h (1 Bft) SO 137 0 min 0,000 mm 0 W/m 6,0 C 8,2 C 9,7 km/h (2 Bft) 100 %
27.10.2014 17:40 7,9 C 7,9 C 8,2 C 87 % 1025,1 hPa 0,0 l/m 1,9 km/h (1 Bft) O-SO 120 0 min 0,000 mm 0 W/m 5,9 C 7,9 C 9,7 km/h (2 Bft) 100 %
27.10.2014 17:50 7,6 C 7,6 C 7,9 C 87 % 1025,2 hPa 0,0 l/m 0,4 km/h (0 Bft) O-SO 111 0 min 0,000 mm 0 W/m 5,6 C 7,6 C 4,8 km/h (1 Bft) 100 %
27.10.2014 18:00 7,3 C 7,3 C 7,6 C 88 % 1025,3 hPa 0,0 l/m 0,8 km/h (0 Bft) SO 133 0 min 0,000 mm 0 W/m 5,4 C 7,3 C 6,4 km/h (2 Bft) 100 %
27.10.2014 18:10 7,1 C 7,1 C 7,3 C 88 % 1025,3 hPa 0,0 l/m 0,7 km/h (0 Bft) O-SO 111 0 min 0,000 mm 0 W/m 5,2 C 7,1 C 8,0 km/h (2 Bft) 100 %
27.10.2014 18:20 6,9 C 6,9 C 7,1 C 88 % 1025,4 hPa 0,0 l/m 0,1 km/h (0 Bft) O-SO 102 0 min 0,000 mm 0 W/m 5,1 C 6,9 C 3,2 km/h (1 Bft) 100 %
27.10.2014 18:30 6,7 C 6,7 C 6,9 C 89 % 1025,3 hPa 0,0 l/m 0,3 km/h (0 Bft) O 96 0 min 0,000 mm 0 W/m 5,0 C 6,7 C 4,8 km/h (1 Bft) 100 %
27.10.2014 18:40 6,5 C 6,5 C 6,7 C 89 % 1025,3 hPa 0,0 l/m 0,2 km/h (0 Bft) O 95 0 min 0,000 mm 0 W/m 4,8 C 6,5 C 3,2 km/h (1 Bft) 100 %
27.10.2014 18:50 6,3 C 6,3 C 6,5 C 89 % 1025,3 hPa 0,0 l/m 0,4 km/h (0 Bft) O-SO 109 0 min 0,000 mm 0 W/m 4,6 C 6,3 C 6,4 km/h (2 Bft) 100 %
27.10.2014 19:00 6,1 C 6,1 C 6,3 C 89 % 1025,2 hPa 0,0 l/m 0,2 km/h (0 Bft) O-NO 60 0 min 0,000 mm 0 W/m 4,4 C 6,1 C 3,2 km/h (1 Bft) 100 %
27.10.2014 19:10 6,0 C 6,0 C 6,1 C 90 % 1025,2 hPa 0,0 l/m 0,1 km/h (0 Bft) N-NO 27 0 min 0,000 mm 0 W/m 4,5 C 6,0 C 3,2 km/h (1 Bft) 100 %
27.10.2014 19:20 5,8 C 5,8 C 6,0 C 90 % 1025,0 hPa 0,0 l/m 0,0 km/h (0 Bft) NO 49 0 min 0,000 mm 0 W/m 4,3 C 5,8 C 1,6 km/h (1 Bft) 99 %
27.10.2014 19:30 5,6 C 5,6 C 5,8 C 90 % 1025,1 hPa 0,0 l/m 0,0 km/h (0 Bft) NO 49 0 min 0,000 mm 0 W/m 4,1 C 5,6 C 1,6 km/h (1 Bft) 100 %
27.10.2014 19:40 5,4 C 5,4 C 5,6 C 90 % 1025,0 hPa 0,0 l/m 0,0 km/h (0 Bft) NO 51 0 min 0,000 mm 0 W/m 3,9 C 5,4 C 0,0 km/h (0 Bft) 100 %
27.10.2014 19:50 5,3 C 5,3 C 5,4 C 90 % 1025,0 hPa 0,0 l/m 0,1 km/h (0 Bft) NO 48 0 min 0,000 mm 0 W/m 3,8 C 5,3 C 3,2 km/h (1 Bft) 100 %
27.10.2014 20:00 5,1 C 5,1 C 5,3 C 90 % 1025,0 hPa 0,0 l/m 0,0 km/h (0 Bft) NO 48 0 min 0,000 mm 0 W/m 3,6 C 5,1 C 0,0 km/h (0 Bft) 100 %
27.10.2014 20:10 5,0 C 5,0 C 5,2 C 91 % 1025,0 hPa 0,0 l/m 0,0 km/h (0 Bft) NO 48 0 min 0,000 mm 0 W/m 3,7 C 5,0 C 0,0 km/h (0 Bft) 91 %
27.10.2014 20:20 4,8 C 4,8 C 5,0 C 91 % 1025,0 hPa 0,0 l/m 0,0 km/h (0 Bft) NO 48 0 min 0,000 mm 0 W/m 3,5 C 4,8 C 1,6 km/h (1 Bft) 100 %
27.10.2014 20:30 4,8 C 4,8 C 4,8 C 91 % 1025,0 hPa 0,0 l/m 0,0 km/h (0 Bft) NO 48 0 min 0,000 mm 0 W/m 3,5 C 4,8 C 1,6 km/h (1 Bft) 100 %
27.10.2014 20:40 4,7 C 4,7 C 4,8 C 91 % 1025,1 hPa 0,0 l/m 0,0 km/h (0 Bft) NO 48 0 min 0,000 mm 0 W/m 3,4 C 4,7 C 1,6 km/h (1 Bft) 100 %
27.10.2014 20:50 4,6 C 4,6 C 4,7 C 91 % 1025,1 hPa 0,0 l/m 0,2 km/h (0 Bft) NO 48 0 min 0,000 mm 0 W/m 3,3 C 4,6 C 1,6 km/h (1 Bft) 100 %
27.10.2014 21:00 4,6 C 4,6 C 4,6 C 91 % 1025,1 hPa 0,0 l/m 0,4 km/h (0 Bft) N-NO 25 0 min 0,000 mm 0 W/m 3,3 C 4,6 C 4,8 km/h (1 Bft) 100 %
27.10.2014 21:10 4,6 C 4,6 C 4,6 C 91 % 1025,1 hPa 0,0 l/m 0,0 km/h (0 Bft) N-NO 22 0 min 0,000 mm 0 W/m 3,3 C 4,6 C 1,6 km/h (1 Bft) 100 %
27.10.2014 21:20 4,7 C 4,6 C 4,7 C 91 % 1025,1 hPa 0,0 l/m 0,0 km/h (0 Bft) N-NO 22 0 min 0,000 mm 0 W/m 3,4 C 4,7 C 1,6 km/h (1 Bft) 100 %
27.10.2014 21:30 4,8 C 4,7 C 4,8 C 91 % 1025,0 hPa 0,0 l/m 0,0 km/h (0 Bft) N-NO 22 0 min 0,000 mm 0 W/m 3,5 C 4,8 C 1,6 km/h (1 Bft) 100 %
27.10.2014 21:40 5,1 C 4,8 C 5,1 C 91 % 1024,9 hPa 0,0 l/m 0,0 km/h (0 Bft) S-SW 202 0 min 0,000 mm 0 W/m 3,8 C 5,1 C 6,4 km/h (2 Bft) 100 %
27.10.2014 21:50 5,2 C 5,1 C 5,2 C 91 % 1024,9 hPa 0,0 l/m 0,0 km/h (0 Bft) O-NO 67 0 min 0,000 mm 0 W/m 3,9 C 5,2 C 3,2 km/h (1 Bft) 100 %
27.10.2014 22:00 5,3 C 5,2 C 5,3 C 91 % 1024,9 hPa 0,0 l/m 0,0 km/h (0 Bft) N-NO 22 0 min 0,000 mm 0 W/m 4,0 C 5,3 C 1,6 km/h (1 Bft) 100 %
27.10.2014 22:10 5,5 C 5,3 C 5,5 C 91 % 1024,8 hPa 0,0 l/m 0,0 km/h (0 Bft) NO 45 0 min 0,000 mm 0 W/m 4,2 C 5,5 C 8,0 km/h (2 Bft) 100 %
27.10.2014 22:20 5,7 C 5,5 C 5,7 C 91 % 1024,7 hPa 0,0 l/m 0,0 km/h (0 Bft) O-NO 67 0 min 0,000 mm 0 W/m 4,3 C 5,7 C 4,8 km/h (1 Bft) 100 %
27.10.2014 22:30 5,8 C 5,7 C 5,8 C 91 % 1024,7 hPa 0,0 l/m 0,0 km/h (0 Bft) SO 135 0 min 0,000 mm 0 W/m 4,4 C 5,8 C 6,4 km/h (2 Bft) 100 %
27.10.2014 22:40 5,8 C 5,7 C 5,8 C 91 % 1024,6 hPa 0,0 l/m 0,0 km/h (0 Bft) NO 45 0 min 0,000 mm 0 W/m 4,4 C 5,8 C 4,8 km/h (1 Bft) 100 %
27.10.2014 22:50 5,9 C 5,8 C 5,9 C 91 % 1024,6 hPa 0,0 l/m 0,0 km/h (0 Bft) NO 45 0 min 0,000 mm 0 W/m 4,5 C 5,9 C 4,8 km/h (1 Bft) 100 %
27.10.2014 23:00 6,0 C 5,9 C 6,0 C 90 % 1024,6 hPa 0,0 l/m 1,6 km/h (1 Bft) O-SO 112 0 min 0,000 mm 0 W/m 4,5 C 6,0 C 9,7 km/h (2 Bft) 100 %
27.10.2014 23:10 6,1 C 6,0 C 6,1 C 90 % 1024,4 hPa 0,0 l/m 1,6 km/h (1 Bft) O 90 0 min 0,000 mm 0 W/m 4,6 C 6,1 C 9,7 km/h (2 Bft) 99 %
27.10.2014 23:20 6,1 C 6,1 C 6,1 C 90 % 1024,4 hPa 0,0 l/m 3,2 km/h (1 Bft) SO 135 0 min 0,000 mm 0 W/m 4,6 C 6,1 C 9,7 km/h (2 Bft) 100 %
27.10.2014 23:30 6,1 C 6,1 C 6,1 C 90 % 1024,4 hPa 0,0 l/m 1,6 km/h (1 Bft) O-SO 112 0 min 0,000 mm 0 W/m 4,6 C 6,1 C 9,7 km/h (2 Bft) 100 %
27.10.2014 23:40 6,1 C 6,1 C 6,1 C 90 % 1024,4 hPa 0,0 l/m 0,0 km/h (0 Bft) O-SO 112 0 min 0,000 mm 0 W/m 4,6 C 6,1 C 4,8 km/h (1 Bft) 100 %
27.10.2014 23:50 6,1 C 6,1 C 6,2 C 90 % 1024,3 hPa 0,0 l/m 0,0 km/h (0 Bft) O-SO 112 0 min 0,000 mm 0 W/m 4,6 C 6,1 C 3,2 km/h (1 Bft) 100 %
_ Min-Zeit 20:50 20:50 21:00 14:00 23:50 - 00:00 - - - - - 20:50 20:50 00:00 20:10
Minimum _ 4,6 C 4,6 C 4,6 C 80 % 1024,3 hPa - 0,0 km/h (0 Bft) - - - - - 3,3 C 4,6 C 0,0 km/h (0 Bft) 91 %
_ Max-Zeit 14:00 14:00 14:00 10:00 10:00 00:00 23:20 - - 12:10 13:00 12:30 13:50 14:00 10:50 00:00
Maximum _ 11,8 C 11,7 C 11,8 C 92 % 1027,3 hPa 0,0 l/m 3,2 km/h
SO (1 Bft)
- - 30 min 0,127 mm 469 W/m 8,7 C 11,8 C 14,5 km/h
O (3 Bft)
100 %
Durchschnitt _ 7,4 C 7,4 C 7,5 C 89 % 1025,6 hPa #0,0 l/m 0,4 km/h (0 Bft) O-SO - #4:20 h #0,610 mm 137 W/m 5,7 C 7,4 C 4,6 km/h (1 Bft) 100 %
PRIVATE WETTERSTATION BILLIGHEIM-ALLFELD - www.neckar-odenwald-wetter.de - Holger Sonntag